Weather History for Chippewa, MI

Change the Weather History Date:

Sunday, December 5, 2010

  Actual Average Record
Temperature  
Mean Temperature 19 °F -  
Max Temperature 24 °F 31 °F 59 °F (2001)
Min Temperature 14 °F 17 °F 0 °F (1991)
Degree Days  
Heating Degree Days 46    
Moisture  
Dew Point 12 °F    
Average Humidity 74    
Maximum Humidity 86    
Minimum Humidity 63    
Precipitation  
Precipitation 0.00 in - - ()
Sea Level Pressure  
Sea Level Pressure 30.04 in    
Wind  
Wind Speed 12 mph (North)    
Max Wind Speed 21 mph    
Max Gust Speed 29 mph    
Visibility 7 miles    
Events      
Averages and records for this station are not official NWS values.
T = Trace of Precipitation, MM = Missing Value Source: NWS Daily Summary

Daily Weather History Graph

Daily Weather History Graph

Search for Another Location

Airport:

Trip Planner

Search our weather history database for the weather conditions in past years. The results will help you decide how hot, cold, wet, or windy it might be!

Date:

Astronomy

Dec. 05, 2010 Rise Set
Actual Time 8:04 AM EST 4:52 PM EST
Civil Twilight 7:30 AM EST 5:26 PM EST
Nautical Twilight 6:52 AM EST 6:04 PM EST
Astronomical Twilight 6:16 AM EST 6:40 PM EST
Moon 8:08 AM EST (12/5) 4:43 PM EST (12/5)
Length of Visible Light 9h 56m
Length of Day
8h 47m
Waning Crescent, 0% of the Moon is Illuminated
Dec 5
Waning Crescent
Dec 5
New
Dec 13
First Quarter
Dec 21
Full
Dec 27
Last Quarter

Hourly Weather History & Observations

Time (EST) Temp. Windchill Dew Point Humidity Pressure Visibility Wind Dir Wind Speed Gust Speed Precip Events Conditions
12:15 AM 17.6 °F 3.7 °F 10.4 °F 73% 30.09 in 10.0 mi North 13.8 mph 20.7 mph N/A   Overcast
12:35 AM 17.6 °F 3.7 °F 8.6 °F 68% 30.08 in 10.0 mi North 13.8 mph 19.6 mph N/A   Overcast
12:55 AM 17.6 °F 5.0 °F 8.6 °F 68% 30.09 in 10.0 mi North 11.5 mph 20.7 mph N/A   Overcast
1:15 AM 15.8 °F 0.9 °F 8.6 °F 73% 30.09 in 10.0 mi North 15.0 mph 21.9 mph N/A   Overcast
1:35 AM 15.8 °F 1.4 °F 6.8 °F 68% 30.09 in 10.0 mi North 13.8 mph - N/A   Overcast
1:55 AM 15.8 °F 2.1 °F 6.8 °F 68% 30.09 in 10.0 mi North 12.7 mph 18.4 mph N/A   Mostly Cloudy
2:15 AM 14.0 °F 1.2 °F 6.8 °F 73% 30.09 in 10.0 mi North 10.4 mph - N/A   Scattered Clouds
2:35 AM 14.0 °F 2.0 °F 6.8 °F 73% 30.09 in 10.0 mi North 9.2 mph - N/A   Scattered Clouds
2:55 AM 15.8 °F 5.1 °F 6.8 °F 68% 30.09 in 10.0 mi NNW 8.1 mph - N/A   Overcast
3:15 AM 15.8 °F 6.1 °F 8.6 °F 73% 30.08 in 10.0 mi North 6.9 mph - N/A   Overcast
3:35 AM 15.8 °F 5.1 °F 8.6 °F 73% 30.08 in 10.0 mi North 8.1 mph - N/A   Overcast
3:55 AM 15.8 °F 5.1 °F 8.6 °F 73% 30.08 in 10.0 mi North 8.1 mph - N/A   Overcast
4:15 AM 17.6 °F 7.3 °F 10.4 °F 73% 30.08 in 10.0 mi North 8.1 mph - N/A   Overcast
4:35 AM 17.6 °F 5.7 °F 10.4 °F 73% 30.08 in 10.0 mi North 10.4 mph - N/A   Overcast
4:55 AM 17.6 °F 5.7 °F 10.4 °F 73% 30.08 in 10.0 mi NNW 10.4 mph - N/A   Overcast
5:15 AM 19.4 °F 7.9 °F 12.2 °F 74% 30.07 in 10.0 mi NNW 10.4 mph - N/A   Overcast
5:35 AM 19.4 °F 9.5 °F 12.2 °F 74% 30.07 in 10.0 mi North 8.1 mph - N/A   Overcast
5:55 AM 19.4 °F 7.9 °F 12.2 °F 74% 30.06 in 10.0 mi NNW 10.4 mph - N/A   Overcast
6:15 AM 19.4 °F 7.9 °F 12.2 °F 74% 30.06 in 10.0 mi North 10.4 mph - N/A   Overcast
6:35 AM 19.4 °F 6.6 °F 14.0 °F 80% 30.06 in 10.0 mi NNW 12.7 mph 17.3 mph N/A   Overcast
6:55 AM 21.2 °F 10.9 °F 14.0 °F 74% 30.06 in 10.0 mi North 9.2 mph - N/A   Overcast
7:15 AM 21.2 °F 8.9 °F 12.2 °F 68% 30.06 in 10.0 mi North 12.7 mph 20.7 mph N/A   Overcast
7:35 AM 21.2 °F 8.9 °F 12.2 °F 68% 30.06 in 10.0 mi North 12.7 mph 18.4 mph N/A   Overcast
7:55 AM 21.2 °F 9.5 °F 12.2 °F 68% 30.06 in 9.0 mi North 11.5 mph - N/A   Overcast
8:15 AM 21.2 °F 7.8 °F 10.4 °F 63% 30.06 in 4.0 mi North 15.0 mph - N/A   Overcast
8:35 AM 21.2 °F 8.9 °F 10.4 °F 63% 30.05 in 7.0 mi North 12.7 mph - N/A   Overcast
8:55 AM 21.2 °F 9.5 °F 12.2 °F 68% 30.05 in 8.0 mi North 11.5 mph - N/A   Overcast
9:15 AM 19.4 °F 6.0 °F 12.2 °F 74% 30.05 in 2.0 mi North 13.8 mph - N/A   Overcast
9:35 AM 21.2 °F 8.9 °F 12.2 °F 68% 30.05 in 5.0 mi North 12.7 mph - N/A   Mostly Cloudy
9:55 AM 21.2 °F 8.9 °F 12.2 °F 68% 30.05 in 4.0 mi North 12.7 mph - N/A   Overcast
10:15 AM 21.2 °F 7.8 °F 14.0 °F 74% 30.05 in 2.0 mi North 15.0 mph - N/A   Overcast
10:35 AM 21.2 °F 8.3 °F 14.0 °F 74% 30.04 in 6.0 mi NNW 13.8 mph - N/A   Overcast
10:55 AM 23.0 °F 10.6 °F 14.0 °F 68% 30.04 in 10.0 mi North 13.8 mph - N/A   Overcast
11:15 AM 23.0 °F 9.6 °F 15.8 °F 74% 30.03 in 1.2 mi NNW 16.1 mph 23.0 mph N/A   Overcast
11:35 AM 23.0 °F 9.6 °F 17.6 °F 80% 30.03 in 2.5 mi NNW 16.1 mph 20.7 mph N/A   Overcast
11:55 AM 24.8 °F 10.3 °F 14.0 °F 64% 30.03 in 2.0 mi NNW 20.7 mph 28.8 mph N/A   Overcast
6:35 PM 19.4 °F 8.6 °F 15.8 °F 86% 30.02 in 0.5 mi North 9.2 mph - N/A   Overcast
6:55 PM 19.4 °F 10.4 °F 15.8 °F 86% 30.02 in 0.8 mi North 6.9 mph - N/A   Overcast
7:15 PM 19.4 °F 9.5 °F 15.8 °F 86% 30.02 in 1.5 mi North 8.1 mph - N/A   Overcast
7:35 PM 19.4 °F 6.0 °F 15.8 °F 86% 30.01 in 2.0 mi NNW 13.8 mph 18.4 mph N/A   Overcast
7:55 PM 19.4 °F 8.6 °F 14.0 °F 80% 30.01 in 2.0 mi North 9.2 mph - N/A   Overcast
8:15 PM 19.4 °F 7.9 °F 15.8 °F 86% 30.00 in 1.5 mi North 10.4 mph - N/A   Overcast
8:35 PM 19.4 °F 6.6 °F 15.8 °F 86% 30.00 in 1.0 mi North 12.7 mph - N/A   Overcast
8:55 PM 19.4 °F 6.0 °F 14.0 °F 80% 30.00 in 1.0 mi North 13.8 mph 18.4 mph N/A   Overcast
9:15 PM 19.4 °F 5.0 °F 12.2 °F 74% 29.99 in 2.5 mi North 16.1 mph - N/A   Overcast
9:35 PM 19.4 °F 6.0 °F 12.2 °F 74% 29.99 in 5.0 mi North 13.8 mph - N/A   Overcast
9:55 PM 19.4 °F 7.9 °F 12.2 °F 74% 29.99 in 5.0 mi NNW 10.4 mph 16.1 mph N/A   Overcast
10:15 PM 19.4 °F 6.6 °F 12.2 °F 74% 29.98 in 5.0 mi NNW 12.7 mph 17.3 mph N/A   Overcast
10:35 PM 19.4 °F 6.6 °F 15.8 °F 86% 29.98 in 8.0 mi NW 12.7 mph - N/A   Overcast
10:55 PM 21.2 °F 7.8 °F 12.2 °F 68% 29.97 in 8.0 mi NW 15.0 mph 23.0 mph N/A   Overcast
11:15 PM 19.4 °F 7.2 °F 12.2 °F 74% 29.97 in 3.0 mi North 11.5 mph 16.1 mph N/A   Overcast
11:35 PM 19.4 °F 9.5 °F 14.0 °F 80% 29.97 in 3.0 mi North 8.1 mph - N/A   Overcast
11:55 PM 19.4 °F 6.0 °F 14.0 °F 80% 29.97 in 10.0 mi NW 13.8 mph - N/A   Overcast